Location: Newark
(48.6461°N, 4.3644°W)
Time: 04:38:41
(UTC+00:00)

STARLINK 1063 - Pass Details

Date: 11 December 2019
Orbit: 548 x 551 km, 53.0° (Epoch: 18 January)

Event Time Altitude Azimuth Distance (km) Brightness Sun altitude
Exits shadow 05:04:00 35° 135° (SE) 914 5.0 -27.8°
Drops below altitude 10° 05:06:32 10° 127° (SE) 1,851 7.0 -27.4°
Sets 05:08:47 0° 125° (SE) 2,745 8.1 -27.0°
